CW9927 Weather Reports


time (UTC)temp
C
wind
direction
speed
KPH
gust
KPH
rain 1hr
cm
rain 24hr
cm
rain mn
cm
humidity
%
barometer
mb
20260904102319 16 0.0 0.0 0.05 0.08 0.08 91 1012.8
20260904101317 16 0.0 0.0 0.03 0.05 0.05 91 1012.8
20260904100317 16 0.0 0.0 0.05 0.05 0.05 91 1012.8
20260904095337 16 0.0 0.0 0.03 0.03 0.03 90 1012.8
20260904094317 17 0.0 0.0 0.03 0.03 0.03 91 1012.7
20260904093317 17 0.0 0.0 0.03 0.03 0.03 91 1012.7
20260904092317 17 0.0 0.0 0.03 0.03 0.03 91 1012.7
20260904091317 17 0.0 0.0 0.03 0.03 0.03 91 1012.7
20260904090417 17 0.0 0.0 0.00 0.00 0.00 90 1012.8
20260904085317 17 0.0 0.0 0.00 0.00 0.00 90 1012.9
20260904084337 17 0.0 0.0 0.00 0.00 0.00 90 1012.8
20260904083318 17 0.0 0.0 0.00 0.00 0.00 90 1012.9
20260904082317 17 0.0 0.0 0.00 0.00 0.00 90 1012.9
20260904081357 17 0.0 0.0 0.00 0.00 0.00 90 1012.9
20260904080317 16 0.0 0.0 0.00 0.00 0.00 90 1012.9
20260904075338 16 0.0 0.0 0.00 0.00 0.00 90 1012.9
20260904074338 16 0.0 0.0 0.00 0.00 0.00 90 1012.9
20260904073317 16 0.0 0.0 0.00 0.00 0.00 90 1012.8
20260904072337 16 0.0 0.0 0.00 0.00 0.00 89 1012.7
20260904071337 16 0.0 0.0 0.00 0.00 0.00 89 1012.8
20260904070335 16 0.0 0.0 0.00 0.00 0.00 89 1012.9
20260904070233 16 0.0 0.0 0.00 0.00 0.00 89 1012.8
20260904065118 16 0.0 0.0 0.00 0.00 0.00 89 1012.8
20260904064118 16 0.0 0.0 0.00 0.00 0.00 88 1012.9
20260904063118 16 0.0 0.0 0.00 0.00 0.00 89 1013.0
20260904062138 16 0.0 0.0 0.00 0.00 0.00 88 1012.9
20260904061117 16 0.0 0.0 0.00 0.00 0.00 88 1013.0
20260904060117 17 0.0 0.0 0.00 0.00 0.00 88 1012.9
20260904055118 17 0.0 0.0 0.00 0.00 0.00 88 1013.0
20260904054117 17 0.0 0.0 0.00 0.00 0.00 88 1013.1
20260904053117 17 0.0 0.0 0.00 0.00 0.00 88 1013.2
20260904052118 17 0.0 0.0 0.00 0.00 0.00 88 1013.3
20260904051117 17 0.0 0.0 0.00 0.00 0.00 88 1013.3
20260904050135 17 0.0 0.0 0.00 0.00 0.00 88 1013.3
20260904045116 17 0.0 0.0 0.00 0.00 0.00 87 1013.4
20260904044116 17 0.0 0.0 0.00 0.00 0.00 87 1013.4
20260904043157 17 0.0 0.0 0.00 0.00 0.00 87 1013.4
20260904042116 17 0.0 0.0 0.00 0.00 0.00 87 1013.3
20260904041116 17 0.0 0.0 0.00 0.00 0.00 87 1013.3
20260904040116 17 0.0 0.0 0.00 0.00 0.00 87 1013.2
20260904035116 17 0.0 0.0 0.00 0.00 0.00 86 1013.1
20260904034157 17 0.0 0.0 0.00 0.00 0.00 85 1013.0
20260904033137 17 0.0 0.0 0.00 0.00 0.00 85 1012.9
20260904032136 17 0.0 0.0 0.00 0.00 0.00 84 1012.8
20260904031116 17 0.0 0.0 0.00 0.00 0.00 83 1012.8
20260904030116 17 0.0 0.0 0.00 0.00 0.00 82 1012.8
20260904025138 17 0.0 0.0 0.00 0.00 0.00 82 1012.8
20260904024116 17 0.0 0.0 0.00 0.00 0.00 81 1012.7
20260904023119 18 0.0 0.0 0.00 0.00 0.00 79 1012.7
20260904022137 18 0.0 0.0 0.00 0.00 0.00 78 1012.8
20260904021116 18 0.0 0.0 0.00 0.00 0.00 76 1012.8
20260904020116 19 0.0 0.0 0.00 0.00 0.00 75 1012.8
20260904015116 20 0.0 0.0 0.00 0.00 0.00 73 1012.7
20260904014137 20 0.0 1.6 0.00 0.00 0.00 71 1012.7
20260904013118 20 0.0 0.0 0.00 0.00 0.00 71 1012.7
20260904012116 21 0.0 0.0 0.00 0.00 0.00 70 1012.7
20260904011116 21 0.0 0.0 0.00 0.00 0.00 70 1012.6
20260904005117 21 248 1.6 9.7 0.00 0.00 0.00 67 1012.7
20260904004117 21 0.0 0.0 0.00 0.00 0.00 66 1012.6
20260904003119 21 248 3.2 17.7 0.00 0.00 0.00 65 1012.5
20260904002117 22 270 9.7 22.5 0.00 0.00 0.00 64 1012.6
20260904001119 22 270 3.2 11.3 0.00 0.00 0.00 63 1012.6
20260904000117 22 0.0 1.6 0.00 0.00 0.00 63 1012.7
20260903235137 22 0.0 0.0 0.00 0.00 0.00 63 1012.7
20260903234119 22 0.0 0.0 0.00 0.00 0.00 61 1012.8
20260903233119 23 0.0 0.0 0.00 0.00 0.00 61 1012.9
20260903232137 23 248 8.0 16.1 0.00 0.00 0.00 62 1012.9
20260903231117 23 248 12.9 17.7 0.00 0.00 0.00 60 1012.9
20260903230117 23 270 11.3 22.5 0.00 0.00 0.00 59 1013.0
20260903225137 23 248 8.0 25.7 0.00 0.00 0.00 57 1013.2
20260903224119 23 0.0 0.0 0.00 0.00 0.00 56 1013.3
20260903223117 23 0.0 0.0 0.00 0.00 0.00 56 1013.3
20260903222117 23 0.0 0.0 0.00 0.00 0.00 57 1013.4
20260903221117 23 0.0 0.0 0.00 0.00 0.00 57 1013.5
20260903220117 23 0.0 0.0 0.00 0.00 0.00 54 1013.6
20260903215137 24 0.0 0.0 0.00 0.00 0.00 51 1013.6
20260903214117 25 225 4.8 16.1 0.00 0.00 0.00 48 1013.5
20260903213117 26 0.0 0.0 0.00 0.00 0.00 43 1013.6
20260903212119 26 0.0 0.0 0.00 0.00 0.00 41 1013.6
20260903211117 25 0.0 0.0 0.00 0.00 0.00 47 1013.6
20260903210138 25 0.0 1.6 0.00 0.00 0.00 45 1013.8
20260903205119 25 0.0 3.2 0.00 0.00 0.00 43 1013.9
20260903204118 25 0.0 0.0 0.00 0.00 0.00 47 1014.0
20260903203119 25 0.0 0.0 0.00 0.00 0.00 45 1014.1
20260903202117 25 0.0 0.0 0.00 0.00 0.00 43 1014.2
20260903201137 25 0.0 0.0 0.00 0.00 0.00 46 1014.2
20260903200119 24 0.0 0.0 0.00 0.00 0.00 48 1014.2
20260903195117 24 0.0 0.0 0.00 0.00 0.00 47 1014.4
20260903194117 24 0.0 0.0 0.00 0.00 0.00 50 1014.5
20260903193119 23 0.0 0.0 0.00 0.00 0.00 51 1014.6
20260903192137 23 0.0 0.0 0.00 0.00 0.00 52 1014.8
20260903191117 23 0.0 0.0 0.00 0.00 0.00 55 1015.0
20260903190217 22 0.0 0.0 0.00 0.00 0.00 58 1015.2
20260903185117 22 0.0 0.0 0.00 0.00 0.00 58 1015.5
20260903184117 22 0.0 0.0 0.00 0.00 0.00 59 1015.6
20260903183117 21 0.0 0.0 0.00 0.00 0.00 59 1015.7
20260903182117 21 0.0 0.0 0.00 0.00 0.00 60 1015.8
20260903181137 21 0.0 0.0 0.00 0.00 0.00 60 1015.9
20260903180117 20 0.0 0.0 0.00 0.00 0.00 64 1015.9
20260903175137 20 0.0 0.0 0.00 0.00 0.00 64 1015.9
20260903174117 20 0.0 0.0 0.00 0.00 0.00 66 1015.9
20260903173117 20 0.0 0.0 0.00 0.00 0.00 69 1016.0
20260903172137 18 0.0 0.0 0.00 0.00 0.00 73 1016.2
20260903171158 18 0.0 0.0 0.00 0.00 0.00 74 1016.3
20260903170134 17 0.0 0.0 0.00 0.00 0.00 76 1016.4
20260903165116 17 0.0 0.0 0.00 0.00 0.00 77 1016.5
20260903164136 16 0.0 0.0 0.00 0.00 0.00 78 1016.6
20260903163117 16 0.0 0.0 0.00 0.00 0.00 82 1016.6
20260903161116 15 0.0 0.0 0.00 0.00 0.00 83 1016.7
20260903160116 14 0.0 0.0 0.00 0.00 0.00 85 1016.6
20260903155116 13 0.0 0.0 0.00 0.00 0.00 88 1016.7
20260903154136 12 0.0 0.0 0.00 0.00 0.00 89 1016.8
20260903153116 12 0.0 0.0 0.00 0.00 0.00 90 1016.9
20260903152116 12 0.0 0.0 0.00 0.00 0.00 91 1016.8
20260903151116 11 0.0 0.0 0.00 0.00 0.00 92 1016.9
20260903150116 11 0.0 0.0 0.00 0.00 0.00 92 1016.8
20260903145136 11 0.0 0.0 0.00 0.00 0.00 92 1016.8
20260903144116 10 0.0 0.0 0.00 0.00 0.00 92 1016.8
20260903143116 10 0.0 0.0 0.00 0.00 0.00 92 1016.8
20260903142116 10 0.0 0.0 0.00 0.00 0.00 90 1016.7
20260903141116 10 0.0 0.0 0.00 0.00 0.00 90 1016.6
20260903140116 10 0.0 0.0 0.00 0.00 0.00 91 1016.4
20260903135116 10 0.0 0.0 0.00 0.00 0.00 90 1016.5
20260903134116 10 0.0 0.0 0.00 0.00 0.00 90 1016.4
20260903133116 10 0.0 0.0 0.00 0.00 0.00 90 1016.4
20260903132137 10 0.0 0.0 0.00 0.00 0.00 90 1016.4
20260903131156 10 0.0 0.0 0.00 0.00 0.00 91 1016.4
20260903125116 10 0.0 0.0 0.00 0.00 0.00 91 1016.4
20260903124116 10 0.0 0.0 0.00 0.00 0.00 91 1016.4
20260903123136 10 0.0 0.0 0.00 0.00 0.00 91 1016.4
20260903122116 10 0.0 0.0 0.00 0.00 0.00 90 1016.4
20260903121136 10 0.0 0.0 0.00 0.00 0.00 90 1016.5
20260903120116 10 0.0 0.0 0.00 0.00 0.00 90 1016.5
20260903115116 10 0.0 0.0 0.00 0.00 0.00 90 1016.5
20260903114136 10 0.0 0.0 0.00 0.00 0.00 90 1016.7
20260903113117 10 0.0 0.0 0.00 0.00 0.00 90 1016.7
20260903112116 10 0.0 0.0 0.00 0.00 0.00 89 1016.9
20260903111116 10 0.0 0.0 0.00 0.00 0.00 90 1017.0
20260903110116 11 0.0 0.0 0.00 0.00 0.00 89 1017.0
20260903105117 11 0.0 0.0 0.00 0.00 0.00 90 1016.9
20260903104153 11 0.0 0.0 0.00 0.00 0.00 90 1016.9
20260903103136 11 0.0 0.0 0.00 0.00 0.00 90 1017.0